Weather History for CYVR - December, 2012

Change the Weather History Date:

Monday, December 3, 2012

  Actual Average Record
Temperature  
Mean Temperature 44 °F -  
Max Temperature 48 °F 44 °F 55 °F (2007)
Min Temperature 41 °F 35 °F 24 °F (2014)
Degree Days  
Heating Degree Days 20    
Moisture  
Dew Point 41 °F    
Average Humidity 84    
Maximum Humidity 93    
Minimum Humidity 76    
Precipitation  
Precipitation 0.24 in - - ()
Sea Level Pressure  
Sea Level Pressure 29.83 in    
Wind  
Wind Speed 11 mph ()    
Max Wind Speed 20 mph    
Max Gust Speed 28 mph    
Visibility 14.2 miles    
Events Rain    
Averages and records for this station are not official NWS values.
T = Trace of Precipitation, MM = Missing Value Source: Averaged Metar Reports

Daily Weather History Graph

Daily Weather History Graph

Search for Another Location

Airport or City:

Trip Planner

Search our weather history database for the weather conditions in past years. The results will help you decide how hot, cold, wet, or windy it might be!

Date:

Astronomy

Dec. 03, 2012 Rise Set
Actual Time 7:49 AM PST 4:15 PM PST
Civil Twilight 7:12 AM PST 4:52 PM PST
Nautical Twilight 6:32 AM PST 5:32 PM PST
Astronomical Twilight 5:53 AM PST 6:11 PM PST
Moon 9:23 PM PST (12/3) 11:02 AM PST (12/3)
Length of Visible Light 9h 40m
Length of Day
8h 26m
Waning Gibbous, 77% of the Moon is Illuminated
Dec 3
Waning Gibbous
Dec 6
Last Quarter
Dec 13
New
Dec 19
First Quarter
Dec 28
Full

Hourly Weather History & Observations

Time (PST) Temp. Windchill Dew Point Humidity Pressure Visibility Wind Dir Wind Speed Gust Speed Precip Events Conditions
12:00 AM 46.4 °F 41.1 °F 42.8 °F 87% 29.69 in 15.0 mi ESE 11.5 mph - N/A   Mostly Cloudy
1:00 AM 46.4 °F 41.5 °F 42.8 °F 87% 29.71 in 15.0 mi ESE 10.4 mph - N/A   Overcast
1:23 AM 46.4 °F 41.5 °F - N/A% - 15.0 mi ESE 10.4 mph - N/A Rain Light Rain Showers
2:00 AM 46.4 °F 40.7 °F 41.0 °F 81% 29.73 in 12.0 mi South 12.7 mph - N/A Rain Light Rain Showers
3:00 AM 44.6 °F 36.6 °F 41.0 °F 87% 29.74 in 10.0 mi South 19.6 mph 27.6 mph N/A Rain Light Rain
4:00 AM 44 °F - 40 °F 80% 29.74 in 15 mi South 17.3 mph - - Rain Light Rain
4:00 AM 44.6 °F 36.6 °F 39.2 °F 81% 29.74 in 15.0 mi South 19.6 mph 25.3 mph N/A   Mostly Cloudy
5:00 AM 44.6 °F 37.4 °F 39.2 °F 81% 29.78 in 15.0 mi South 16.1 mph - N/A   Mostly Cloudy
6:00 AM 44.6 °F 38.1 °F 39.2 °F 81% 29.81 in 15.0 mi South 13.8 mph 20.7 mph N/A   Partly Cloudy
7:00 AM 44.6 °F 38.8 °F 39.2 °F 81% 29.84 in 15.0 mi South 11.5 mph - N/A   Scattered Clouds
8:00 AM 44.6 °F 40.2 °F 39.2 °F 81% 29.88 in 15.0 mi SE 8.1 mph - N/A   Mostly Cloudy
9:00 AM 42.8 °F 38.6 °F 39.2 °F 87% 29.91 in 15.0 mi ESE 6.9 mph - N/A   Mostly Cloudy
10:00 AM 46 °F - 42 °F 82% 29.95 in 15 mi SE 5.8 mph - -   Scattered Clouds
10:00 AM 46.4 °F 43.5 °F 42.8 °F 87% 29.95 in 15.0 mi SE 5.8 mph - N/A   Mostly Cloudy
11:00 AM 48.2 °F - 41.0 °F 76% 29.98 in 15.0 mi SE 9.2 mph - N/A   Overcast
12:00 PM 48.2 °F - 41.0 °F 76% 29.99 in 15.0 mi SSE 11.5 mph 18.4 mph N/A Rain Light Rain Showers
1:00 PM 48.2 °F - 41.0 °F 76% 29.98 in 15.0 mi East 9.2 mph - N/A Rain Light Rain Showers
1:23 PM 48.2 °F - - N/A% - 15.0 mi ESE 12.7 mph - N/A   Overcast
2:00 PM 48.2 °F - 42.8 °F 82% 29.95 in 15.0 mi East 10.4 mph - N/A   Overcast
3:00 PM 48.2 °F - 42.8 °F 82% 29.93 in 15.0 mi East 11.5 mph - N/A   Overcast
3:39 PM 46.4 °F 41.1 °F - N/A% - 15.0 mi East 11.5 mph - N/A Rain Light Rain Showers
4:00 PM 47 °F - 42 °F 76% 29.91 in 15 mi East 15.0 mph - - Rain Light Rain Showers
4:00 PM 46.4 °F 40.1 °F 42.8 °F 87% 29.91 in 15.0 mi East 15.0 mph - N/A Rain Light Rain Showers
5:00 PM 46.4 °F 41.1 °F 42.8 °F 87% 29.88 in 15.0 mi East 11.5 mph - N/A Rain Light Rain Showers
6:00 PM 46.4 °F 40.4 °F 41.0 °F 81% 29.85 in 15.0 mi East 13.8 mph - N/A Rain Light Rain Showers
7:00 PM 44.6 °F 38.8 °F 41.0 °F 87% 29.85 in 15.0 mi East 11.5 mph - N/A Rain Light Rain Showers
8:00 PM 44.6 °F 38.4 °F 42.8 °F 93% 29.81 in 12.0 mi East 12.7 mph - N/A Rain Light Rain Showers
9:00 PM 44.6 °F 37.4 °F 42.8 °F 93% 29.76 in 10.0 mi East 16.1 mph - N/A Rain Light Rain Showers
10:00 PM 45 °F - 43 °F 88% 29.71 in 15 mi East 17.3 mph - - Rain Light Rain Showers
10:00 PM 44.6 °F 37.2 °F 42.8 °F 93% 29.71 in 10.0 mi East 17.3 mph - N/A Rain Light Rain Showers
11:00 PM 44.6 °F 36.9 °F 42.8 °F 93% 29.65 in 10.0 mi East 18.4 mph - N/A Rain Light Rain